Home > Weather > Walvis Bay > Past weeks

Flag for Namibia Weather for the Past 2 Weeks in Walvis Bay, Namibia

Now
54 °F

Fog.


Feels Like: 51 °F
Forecast: 65 / 76 °F
Wind: 9 mph from Northeast

Location: Walvis Bay

Current Time: May 1, 2016 at 9:09:50 AM

Latest Report: May 1, 2016 at 8:00 AM


Visibility: 2 mi

Pressure: 30.01 "Hg

Humidity: 94%

Dew Point: 52 °F

Location of Walvis BayLocation

Historic Weather in Walvis Bay — Graph

°F

Walvis Bay Temperature Yesterday

Maximum temperature yesterday: 72 °F (at 1:00 PM)
Minimum temperature yesterday: 52 °F (at 2:00 AM)
Average temperature yesterday: 59 °F

High & Low Weather Summary for the Past Weeks

 TemperatureHumidityPressure
High108 °F (Apr 16, 12:00 PM)100% (Apr 22, 5:00 AM)30.07 "Hg (Apr 22, 5:00 AM)
Low48 °F (May 1, 5:00 AM)10% (Apr 16, 11:00 AM)29.86 "Hg (Apr 16, 2:00 PM)
Average68 °F65%29.95 "Hg
* Reported Apr 16 7:00 AM — May 1 7:00 AM, Walvis Bay, Weather by CustomWeather, © 2016

Note: Actual official high and low records may vary slightly from our data, if they occured in-between our weather recording intervals... More about our weather records

Advertising

Walvis Bay Weather History for the Previous 24 Hours

Scroll right to see more
 ConditionsComfort  
Time TempWeatherWind HumidityBarometerVisibility
7:00 AM
Sun, May 1
52 °FFog.8 mph94%30.01 "Hg0 mi
6:00 AM50 °FCool.8 mph94%29.98 "HgN/A
5:00 AM48 °FCool.5 mph94%29.98 "HgN/A
4:10 AM50 °FCool.3 mph88%29.98 "HgN/A
3:00 AM52 °FCool.8 mph88%29.95 "HgN/A
2:00 AM52 °FCool.9 mph88%29.95 "HgN/A
1:00 AM52 °FCool.7 mph82%29.98 "HgN/A
12:00 AM52 °FCool.5 mph82%29.98 "HgN/A
11:00 PM
Sat, Apr 30
54 °FCool.2 mph77%30.01 "HgN/A
10:00 PM55 °FCool.7 mph77%30.01 "HgN/A
9:00 PM57 °FCool.3 mph77%30.01 "HgN/A
8:00 PM57 °FCool.3 mph77%30.01 "HgN/A
7:00 PM59 °FCool.7 mph72%29.98 "HgN/A
6:00 PM61 °FCool.12 mph68%29.95 "HgN/A
5:00 PM64 °FMild.14 mph64%29.95 "HgN/A
4:00 PM70 °FMild.16 mph57%29.92 "HgN/A
3:00 PM72 °FMild.14 mph57%29.92 "HgN/A
2:00 PM72 °FMild.14 mph57%29.95 "HgN/A
1:00 PM72 °FSunny.9 mph57%29.98 "Hg10 mi
12:00 PM70 °FSunny.6 mph60%30.01 "Hg10 mi
11:00 AM66 °FSunny.3 mph68%30.01 "Hg10 mi
10:00 AM61 °FPassing clouds.2 mph88%30.04 "HgN/A
9:00 AM55 °FCool.2 mph94%30.04 "HgN/A
Weather by CustomWeather, © 2016

See weather overviewHow to use our weather pages